[[{"header":{"parameterUnit":"m.s-1","parameterCategory":1,"la1":30.2991,"la2":30.254,"lo1":-89.0895,"lo2":-89.0444,"dy":0.0017,"dx":0.0017,"nx":28,"ny":28,"refTime":"2024-09-28T03:00:00:Z","depth":0,"parameterNumber":2,"parameterNumberName":"U-component_of_WINDS"},"data":[0,0,0,0,0,0,0,0,0,0,0,0,0,0,0,0,0,0,0,0,0,0,0,0,0,0,0,0,0,0,0,0,0,0,0,0,0,0,0,0,0,0,0,0,0,0,0,0,0,0,0,0,0,0,0,0,0,0,2.7477,2.7478,0,2.7539,2.7539,2.754,2.7539,2.7538,2.7537,2.7536,2.7602,2.7604,2.7607,0,0,0,0,0,0,0,0,0,0,0,0,0,2.736,2.7362,2.7477,2.7478,2.7479,2.7539,2.7539,2.754,2.7539,2.7538,2.7537,2.7536,2.7601,2.7604,2.7607,0,0,0,0,0,0,0,0,0,0,0,0,0,2.7415,2.7363,2.7477,2.7485,2.7486,2.7538,2.754,2.7541,2.7539,2.7538,2.7536,2.7535,2.76,2.7604,2.7607,2.7656,0,0,2.7619,2.7621,0,0,0,0,0,0,0,0,2.7412,2.7419,2.7483,2.7484,2.7486,2.753,2.7522,2.7579,2.7539,2.7519,2.7536,2.7535,2.7579,2.7584,2.7599,2.7659,2.7662,2.7619,2.7622,2.7623,2.7624,0,0,0,0,0,0,0,2.7408,2.7417,2.7501,2.7484,2.7486,2.7486,2.7493,2.7533,2.7555,2.7521,2.7521,2.7528,2.758,2.7595,2.76,2.7663,2.7619,2.7623,2.7625,2.7626,2.7767,2.7768,0,0,0,0,0,0,2.7402,2.7413,2.75,2.7503,2.7445,2.7489,2.7496,2.7517,2.7555,2.7559,2.7529,2.7528,2.7589,2.7596,2.7603,2.7662,2.7623,2.7627,2.7629,2.7765,2.7767,2.7769,0,0,0,0,0,0,2.74,2.741,2.7497,2.7458,2.747,2.7493,2.7516,2.7519,2.7534,2.7561,2.7565,2.7541,2.7589,2.7597,2.7643,2.7664,2.7628,2.7632,2.7764,2.7766,2.7768,2.7781,0,0,0,0,0,0,2.7396,2.7409,2.7427,2.7459,2.7472,2.7535,2.7517,2.7521,2.7541,2.754,2.7573,2.7578,2.7588,2.7637,2.7646,2.7669,2.7635,2.7762,2.7765,2.7767,2.7779,2.7784,2.7788,0,0,0,0,0,2.7392,2.7429,2.7428,2.7439,2.7495,2.7537,2.7544,2.7555,2.7542,2.7561,2.7578,2.7577,2.766,2.7642,2.7652,2.7676,2.776,2.7764,2.7767,2.7777,2.7783,2.7788,0,0,0,0,0,0,2.7401,2.7434,2.7433,2.7481,2.7506,2.7536,2.756,2.7561,2.759,2.7588,2.7601,2.7608,2.7654,2.767,2.7648,2.7725,2.7709,2.7715,2.7713,2.7719,2.7723,2.7718,2.7638,0,0,0,0,0,2.7408,2.7438,2.7466,2.7506,2.7518,2.7537,2.7556,2.7562,2.7589,2.7599,2.762,2.7646,2.7679,2.77,2.7731,2.7782,2.7789,2.7803,2.7808,2.7811,2.7816,2.7843,2.785,2.7779,2.7779,2.7779,0,0,2.7424,2.7446,2.7464,2.7508,2.7528,2.756,2.7546,2.7581,2.7604,2.7605,2.7648,2.7665,2.7695,2.7743,2.7765,2.7758,2.7837,2.7815,2.7818,2.7821,2.7847,2.7854,2.786,2.7781,2.7781,2.7781,0,0,2.7469,2.7488,2.7523,2.7544,2.7574,2.7586,2.7594,2.7625,2.7635,2.7679,2.768,2.7709,2.7764,2.7786,2.7804,2.7857,2.7856,2.7867,2.7889,2.7916,2.7922,2.7927,2.7945,2.7952,2.7871,2.7871,2.7871,0,2.7484,2.7532,2.7542,2.7576,2.7595,2.7596,2.7632,2.7652,2.7691,2.7705,2.7695,2.7765,2.7785,2.7838,2.7851,2.7866,2.7876,2.7863,2.792,2.7925,2.793,2.7948,2.7955,2.7872,2.7872,2.7872,2.7872,0,2.755,2.7583,2.7608,2.7644,2.7667,2.7702,2.7717,2.7739,2.7743,2.7756,2.7801,2.7826,2.7862,2.7875,2.788,2.7929,2.7923,2.7917,2.7901,2.7937,2.7954,2.7961,2.7874,2.7874,2.7873,2.7873,0,0,2.7601,2.7643,2.7652,2.7668,2.7702,2.7728,2.7763,2.7797,2.7815,2.7843,2.7872,2.7919,2.7913,2.7934,2.7941,2.7965,2.8005,2.7956,2.7957,2.7964,2.806,2.8064,2.8071,2.8004,2.8006,2.8007,2.8057,0,2.7649,2.7711,2.7721,2.7775,2.7806,2.7807,2.7838,2.7862,2.7875,2.7904,2.7919,2.7952,2.7942,2.7954,2.7978,2.7995,2.8024,2.7991,2.8033,2.8034,2.8024,2.808,2.8085,2.8131,2.8064,2.8065,2.8066,0,2.7713,2.7741,2.7798,2.7827,2.784,2.7867,2.79,2.7927,2.7954,2.7962,2.7985,2.7989,2.8027,2.8009,2.806,2.8038,2.8055,2.8066,2.8068,2.8072,2.8052,2.8085,2.8146,2.8153,2.8076,2.8075,2.8075,0,2.7745,2.7797,2.7837,2.7851,2.7886,2.7905,2.7921,2.7947,2.7967,2.7995,2.8008,2.8041,2.8059,2.8085,2.8098,2.8084,2.8148,2.8132,2.8156,2.8156,2.817,2.8168,2.8233,2.8182,2.8182,2.8182,2.8181,0,2.7797,2.7832,2.7852,2.7877,2.7916,2.7927,2.7966,2.7981,2.8004,2.8033,2.8036,2.8063,2.8079,2.8108,2.8119,2.816,2.8168,2.8176,2.8178,2.8175,2.8174,2.8187,2.8184,2.8183,2.8183,2.8183,2.8182,0,2.7838,2.7853,2.7897,2.7927,2.7935,2.7962,2.7987,2.8012,2.8025,2.8061,2.807,2.8091,2.8126,2.8142,2.8185,2.8192,2.8238,2.8239,2.8228,2.8229,2.8253,2.825,2.8327,2.8338,2.828,2.828,2.8281,0,2.787,2.7897,2.7929,2.7947,2.7963,2.7994,2.8014,2.8026,2.8047,2.808,2.8101,2.8135,2.8163,2.8219,2.8238,2.8271,2.8272,2.8297,2.8277,2.8273,2.8272,2.827,2.8272,2.83,2.8301,2.8301,2.8302,0,2.7925,2.7931,2.796,2.7991,2.8015,2.804,2.8065,2.808,2.8097,2.812,2.8155,2.8177,2.822,2.8254,2.8288,2.8305,2.8306,2.8308,2.8315,2.8312,2.8305,2.8308,2.8238,2.8306,2.8306,2.8305,2.8305,2.8305,2.7963,2.7986,2.8012,2.8044,2.8064,2.8087,2.8111,2.8127,2.8156,2.8191,2.8198,2.8235,2.8261,2.8307,2.8325,2.8354,2.8349,2.8359,2.8362,2.8364,2.8365,2.8301,2.8361,2.8361,2.8361,2.8361,2.836,0,2.8017,2.8034,2.8063,2.8097,2.8122,2.8121,2.8148,2.8169,2.8201,2.8226,2.8253,2.8293,2.8326,2.8348,2.8382,2.8401,2.8403,2.8409,2.8408,2.8412,2.8369,2.8359,2.8408,2.8408,2.8408,2.8408,2.8408,2.8408,2.8049,2.8088,2.8097,2.8147,2.8163,2.8199,2.8215,2.8236,2.8256,2.83,2.8327,2.8341,2.8365,2.84,2.843,2.8436,2.8448,2.8455,2.846,2.842,2.8415,2.841,2.8401,2.8457,2.8457,2.85,2.8501,2.8501]},{"header":{"parameterUnit":"m.s-1","parameterCategory":1,"la1":30.2991,"la2":30.254,"lo1":-89.0895,"lo2":-89.0444,"dy":0.0017,"dx":0.0017,"nx":28,"ny":28,"refTime":"2024-09-28T03:00:00:Z","depth":0,"parameterNumber":3,"parameterNumberName":"V-component_of_WINDS"},"data":[0,0,0,0,0,0,0,0,0,0,0,0,0,0,0,0,0,0,0,0,0,0,0,0,0,0,0,0,0,0,0,0,0,0,0,0,0,0,0,0,0,0,0,0,0,0,0,0,0,0,0,0,0,0,0,0,0,0,2.3619,2.3619,0,2.3629,2.3629,2.3629,2.3633,2.3633,2.3633,2.3633,2.3641,2.3641,2.3641,0,0,0,0,0,0,0,0,0,0,0,0,0,2.3599,2.36,2.3619,2.3619,2.3619,2.3629,2.3629,2.3629,2.3633,2.3633,2.3633,2.3633,2.3641,2.3641,2.3641,0,0,0,0,0,0,0,0,0,0,0,0,0,2.3608,2.36,2.3619,2.3622,2.3622,2.3629,2.3629,2.3629,2.3633,2.3633,2.3633,2.3633,2.3641,2.3641,2.3641,2.3644,0,0,2.3642,2.3642,0,0,0,0,0,0,0,0,2.3608,2.3609,2.3621,2.3622,2.3622,2.3629,2.3625,2.3634,2.3633,2.3629,2.3633,2.3633,2.3637,2.3637,2.3639,2.3644,2.3645,2.3642,2.3643,2.3643,2.3643,0,0,0,0,0,0,0,2.3607,2.3609,2.3622,2.3622,2.3622,2.3622,2.3623,2.3627,2.3633,2.3629,2.3629,2.3631,2.3637,2.3639,2.364,2.3645,2.3642,2.3643,2.3643,2.3643,2.365,2.365,0,0,0,0,0,0,2.3606,2.3608,2.3622,2.3623,2.3615,2.3622,2.3624,2.3627,2.3633,2.3634,2.3631,2.3631,2.3638,2.3639,2.364,2.3642,2.3643,2.3643,2.3643,2.365,2.365,2.365,0,0,0,0,0,0,2.3606,2.3608,2.3622,2.3616,2.3617,2.3623,2.3626,2.3627,2.3629,2.3634,2.3635,2.3632,2.3638,2.3639,2.3643,2.3643,2.3643,2.3644,2.365,2.365,2.365,2.3648,0,0,0,0,0,0,2.3605,2.3608,2.361,2.3616,2.3618,2.3625,2.3627,2.3628,2.363,2.363,2.3635,2.3636,2.3639,2.3642,2.3643,2.3643,2.3644,2.365,2.365,2.365,2.3648,2.3648,2.3647,0,0,0,0,0,2.3605,2.3608,2.361,2.3611,2.3621,2.3625,2.3627,2.363,2.363,2.3632,2.3634,2.3636,2.3642,2.3642,2.3643,2.3644,2.365,2.365,2.365,2.3648,2.3648,2.3647,0,0,0,0,0,0,2.3602,2.3609,2.3611,2.3617,2.362,2.3626,2.3628,2.363,2.3633,2.3633,2.3637,2.3638,2.364,2.3642,2.3642,2.3645,2.3646,2.3647,2.3644,2.3644,2.3644,2.3643,2.3644,0,0,0,0,0,2.3602,2.3607,2.3612,2.3617,2.3619,2.3623,2.3625,2.3628,2.3631,2.3633,2.3636,2.3638,2.3641,2.3643,2.3645,2.3648,2.3648,2.3648,2.3648,2.3648,2.3648,2.3648,2.3647,2.365,2.365,2.365,0,0,2.3603,2.3607,2.361,2.3616,2.362,2.3623,2.3624,2.3628,2.363,2.3633,2.3636,2.3638,2.3641,2.3644,2.3645,2.3646,2.3647,2.3648,2.3648,2.3648,2.3648,2.3647,2.3647,2.365,2.365,2.365,0,0,2.3605,2.3609,2.3613,2.3616,2.362,2.3623,2.3623,2.3628,2.363,2.3633,2.3635,2.3637,2.3642,2.3643,2.3645,2.3645,2.3646,2.3646,2.3645,2.3644,2.3644,2.3644,2.3643,2.3642,2.3646,2.3646,2.3646,0,2.3604,2.361,2.3614,2.3617,2.362,2.3622,2.3625,2.3627,2.3632,2.3633,2.3634,2.3639,2.3641,2.3643,2.3643,2.3645,2.3644,2.3645,2.3644,2.3644,2.3644,2.3643,2.3642,2.3646,2.3646,2.3646,2.3646,0,2.3609,2.3613,2.3615,2.362,2.3622,2.3625,2.3628,2.3629,2.3631,2.3633,2.3635,2.3638,2.364,2.3641,2.3642,2.3642,2.3642,2.3643,2.3644,2.3643,2.3642,2.3642,2.3645,2.3645,2.3645,2.3645,0,0,2.3611,2.3617,2.3617,2.3619,2.3623,2.3625,2.3627,2.363,2.3631,2.3634,2.3635,2.3638,2.3638,2.364,2.3641,2.3641,2.3639,2.3642,2.3642,2.364,2.3638,2.3636,2.3636,2.364,2.364,2.364,2.3637,0,2.3613,2.3618,2.362,2.3623,2.3626,2.3628,2.3629,2.3631,2.3633,2.3634,2.3635,2.3637,2.3638,2.3638,2.3638,2.3639,2.3639,2.364,2.3639,2.3639,2.3638,2.3636,2.3635,2.3633,2.3637,2.3637,2.3637,0,2.3616,2.3619,2.3622,2.3625,2.3626,2.3627,2.3629,2.3631,2.3632,2.3633,2.3634,2.3635,2.3636,2.3636,2.3636,2.3637,2.3637,2.3637,2.3637,2.3637,2.3638,2.3635,2.3632,2.3631,2.3636,2.3636,2.3636,0,2.3616,2.362,2.3622,2.3624,2.3627,2.3628,2.3629,2.363,2.3631,2.3632,2.3632,2.3633,2.3634,2.3634,2.3635,2.3635,2.3634,2.3635,2.3634,2.3633,2.3633,2.3633,2.363,2.3634,2.3634,2.3634,2.3634,0,2.3618,2.3619,2.3622,2.3623,2.3625,2.3627,2.3628,2.3629,2.363,2.363,2.3632,2.3632,2.3633,2.3633,2.3633,2.3632,2.3633,2.3633,2.3633,2.3632,2.3632,2.3632,2.3632,2.3634,2.3634,2.3634,2.3634,0,2.3618,2.362,2.3622,2.3624,2.3625,2.3626,2.3627,2.3628,2.3628,2.3629,2.3629,2.363,2.363,2.3631,2.3631,2.3631,2.3629,2.363,2.3629,2.3629,2.3627,2.3626,2.3622,2.3621,2.3627,2.3627,2.3627,0,2.3619,2.362,2.3622,2.3623,2.3624,2.3625,2.3625,2.3627,2.3627,2.3628,2.3628,2.3628,2.3628,2.3627,2.3627,2.3626,2.3626,2.3625,2.3626,2.3625,2.3625,2.3625,2.3624,2.3625,2.3625,2.3625,2.3625,0,2.3619,2.362,2.3621,2.3622,2.3623,2.3624,2.3625,2.3625,2.3626,2.3626,2.3626,2.3626,2.3625,2.3624,2.3623,2.3623,2.3624,2.3624,2.3623,2.3623,2.3622,2.3621,2.3627,2.3624,2.3624,2.3624,2.3624,2.3624,2.3619,2.362,2.3621,2.3622,2.3622,2.3623,2.3623,2.3623,2.3623,2.3623,2.3624,2.3623,2.3622,2.3621,2.3621,2.3619,2.362,2.3619,2.3619,2.3619,2.3618,2.3622,2.3619,2.3619,2.3619,2.3619,2.3619,0,2.3619,2.362,2.362,2.3621,2.3621,2.3622,2.3622,2.3622,2.3621,2.3621,2.3621,2.362,2.3618,2.3618,2.3616,2.3615,2.3615,2.3615,2.3615,2.3614,2.3618,2.3619,2.3615,2.3615,2.3615,2.3615,2.3615,2.3615,2.3619,2.362,2.362,2.362,2.362,2.362,2.362,2.3619,2.3619,2.3618,2.3617,2.3617,2.3616,2.3614,2.3612,2.3612,2.3611,2.361,2.361,2.3614,2.3614,2.3615,2.3615,2.361,2.361,2.3606,2.3606,2.3606]}]]